Weather History for Philadelphia, PA

Change the Weather History Date:

Tuesday, July 2, 2013

  Actual Average Record
Temperature  
Mean Temperature 80 °F 77 °F  
Max Temperature 86 °F 86 °F 103 °F (1901)
Min Temperature 74 °F 68 °F 52 °F (1965)
Degree Days  
Heating Degree Days 0 0  
Month to date heating degree days 0 0  
Since 1 June heating degree days 0 11  
Since 1 July heating degree days 0 0  
Cooling Degree Days 15 12  
Month to date cooling degree days 28 24  
Year to date cooling degree days 446 373  
Since 1 June cooling degree days 322 282  
Growing Degree Days 30 (Base 50)    
Moisture  
Dew Point 71 °F    
Average Humidity 74    
Maximum Humidity 87    
Minimum Humidity 61    
Precipitation  
Precipitation 0.06 in 0.13 in 1.73 in (1987)
Month to date precipitation 0.32 0.26  
Year to date precipitation 23.41 20.43  
Snow  
Snow 0.00 in 0.00 in 0.00 in (1870)
Month to date snowfall 0.0 0.0  
Since 1 June snowfall 0.0 0.0  
Since 1 July snowfall 0.0 0.0  
Snow Depth -    
Sea Level Pressure  
Sea Level Pressure 30.11 in    
Wind  
Wind Speed 11 mph (SSW)    
Max Wind Speed 21 mph    
Max Gust Speed 25 mph    
Visibility 9 miles    
Events Rain    
T = Trace of Precipitation, MM = Missing Value Source: NWS Daily Summary

Daily Weather History Graph

Daily Weather History Graph

Search for Another Location

Airport:

Trip Planner

Search our weather history database for the weather conditions in past years. The results will help you decide how hot, cold, wet, or windy it might be!

Date:

Astronomy

Jul. 02, 2013 Rise Set
Actual Time 5:36 AM EDT 8:33 PM EDT
Civil Twilight 5:04 AM EDT 9:05 PM EDT
Nautical Twilight 4:23 AM EDT 9:46 PM EDT
Astronomical Twilight 3:35 AM EDT 10:34 PM EDT
Moon 1:37 AM EDT (7/2) 3:44 PM EDT (7/2)
Length of Visible Light 16h 01m
Length of Day
14h 56m
Waning Crescent, 26% of the Moon is Illuminated
Jul 2
Waning Crescent
Jul 8
New
Jul 15
First Quarter
Jul 22
Full
Jul 29
Last Quarter

Hourly Weather History & Observations

Time (EDT) Temp. Heat Index Dew Point Humidity Pressure Visibility Wind Dir Wind Speed Gust Speed Precip Events Conditions
12:33 AM 77.0 °F - 71.6 °F 83% 30.04 in 10.0 mi South 9.2 mph - N/A   Overcast
12:54 AM 77.0 °F - 72.0 °F 84% 30.04 in 10.0 mi South 8.1 mph - N/A   Overcast
1:05 AM 75.2 °F - 71.6 °F 89% 30.03 in 10.0 mi South 6.9 mph - N/A   Overcast
1:42 AM 75.2 °F - 71.6 °F 89% 30.04 in 10.0 mi South 6.9 mph - N/A   Overcast
1:54 AM 75.9 °F - 72.0 °F 87% 30.04 in 10.0 mi South 9.2 mph - N/A   Overcast
2:54 AM 77.0 °F - 71.1 °F 82% 30.04 in 10.0 mi South 10.4 mph - N/A   Overcast
3:22 AM 75.2 °F - 71.6 °F 89% 30.05 in 10.0 mi South 10.4 mph - N/A   Overcast
3:54 AM 75.9 °F - 71.1 °F 85% 30.05 in 10.0 mi South 13.8 mph - N/A   Mostly Cloudy
4:54 AM 75.9 °F - 71.1 °F 85% 30.06 in 10.0 mi South 10.4 mph - N/A   Mostly Cloudy
5:54 AM 75.9 °F - 71.1 °F 85% 30.07 in 10.0 mi South 9.2 mph - N/A   Mostly Cloudy
6:30 AM 75.2 °F - 71.6 °F 89% 30.08 in 10.0 mi South 8.1 mph - 0.00 in Rain Light Rain
6:46 AM 75.2 °F - 71.6 °F 89% 30.08 in 10.0 mi SSW 8.1 mph - 0.00 in   Overcast
6:54 AM 75.9 °F - 71.1 °F 85% 30.09 in 10.0 mi SSW 6.9 mph - 0.00 in   Overcast
7:49 AM 77.0 °F - 71.6 °F 83% 30.10 in 10.0 mi South 8.1 mph - N/A   Overcast
7:54 AM 77.0 °F - 71.1 °F 82% 30.10 in 10.0 mi South 10.4 mph - N/A   Overcast
8:03 AM 77.0 °F - 71.6 °F 83% 30.10 in 10.0 mi South 10.4 mph - N/A   Overcast
8:54 AM 78.1 °F - 71.1 °F 79% 30.11 in 10.0 mi South 8.1 mph - N/A   Overcast
9:03 AM 78.8 °F - 71.6 °F 78% 30.11 in 9.0 mi South 9.2 mph - 0.00 in Rain Light Rain
10:16 AM 78.8 °F - 71.6 °F 78% 30.12 in 10.0 mi SSW 9.2 mph - 0.00 in   Overcast
10:30 AM 78.8 °F - 71.6 °F 78% 30.13 in 8.0 mi SSW 10.4 mph - 0.00 in Rain Light Rain
10:48 AM 78.8 °F - 71.6 °F 78% 30.13 in 9.0 mi SSW 9.2 mph - 0.00 in Rain Light Rain
10:54 AM 78.1 °F - 72.0 °F 81% 30.13 in 9.0 mi South 11.5 mph - 0.00 in Rain Light Rain
11:04 AM 78.8 °F - 73.4 °F 83% 30.13 in 8.0 mi SSW 9.2 mph - 0.00 in Rain Light Rain
11:13 AM 78.8 °F - 73.4 °F 83% 30.13 in 6.0 mi South 11.5 mph - 0.01 in Rain Light Rain
11:22 AM 78.8 °F - 73.4 °F 83% 30.13 in 10.0 mi SSW 9.2 mph - 0.01 in Rain Light Rain
11:39 AM 77.0 °F - 73.4 °F 89% 30.14 in 10.0 mi SSW 10.4 mph - 0.01 in   Overcast
11:45 AM 78.8 °F - 71.6 °F 78% 30.13 in 10.0 mi SSW 9.2 mph - 0.01 in   Overcast
11:54 AM 78.1 °F - 72.0 °F 81% 30.14 in 10.0 mi SSW 11.5 mph - 0.01 in   Overcast
12:37 PM 78.8 °F - 71.6 °F 78% 30.13 in 10.0 mi SSW 13.8 mph - 0.00 in   Overcast
12:54 PM 80.1 °F 83.6 °F 71.1 °F 74% 30.13 in 10.0 mi SSW 15.0 mph 19.6 mph 0.00 in   Mostly Cloudy
1:05 PM 80.6 °F 84.6 °F 71.6 °F 74% 30.13 in 10.0 mi SSW 16.1 mph - N/A   Mostly Cloudy
1:26 PM 80.6 °F 84.6 °F 71.6 °F 74% 30.13 in 10.0 mi SSW 10.4 mph - N/A   Mostly Cloudy
1:54 PM 84.0 °F 88.4 °F 70.0 °F 63% 30.12 in 10.0 mi SW 11.5 mph - N/A   Mostly Cloudy
2:54 PM 84.9 °F 90.1 °F 71.1 °F 63% 30.12 in 10.0 mi SSW 11.5 mph - N/A   Mostly Cloudy
3:54 PM 86.0 °F 91.5 °F 71.1 °F 61% 30.11 in 10.0 mi SSW 15.0 mph - N/A   Mostly Cloudy
4:54 PM 84.9 °F 89.4 °F 70.0 °F 61% 30.12 in 10.0 mi SSW 13.8 mph - N/A   Mostly Cloudy
5:33 PM 84.2 °F 89.6 °F 71.6 °F 66% 30.13 in 6.0 mi SW 12.7 mph - N/A Rain Light Rain
5:43 PM 80.6 °F 83.9 °F 69.8 °F 70% 30.13 in 8.0 mi West 17.3 mph 21.9 mph 0.00 in Rain Light Rain
5:54 PM 82.0 °F 85.9 °F 70.0 °F 67% 30.13 in 8.0 mi WSW 16.1 mph - 0.00 in Rain Light Rain
6:54 PM 78.1 °F - 71.1 °F 79% 30.17 in 7.0 mi SW 16.1 mph 21.9 mph 0.01 in Rain Light Rain
7:54 PM 75.9 °F - 71.1 °F 85% 30.17 in 7.0 mi SSW 13.8 mph - 0.02 in Rain Light Rain
8:34 PM 75.2 °F - 71.6 °F 89% 30.18 in 10.0 mi SSW 8.1 mph - 0.02 in   Overcast
8:54 PM 75.0 °F - 71.1 °F 87% 30.17 in 10.0 mi SSW 5.8 mph - 0.02 in Rain Light Rain
9:54 PM 75.0 °F - 70.0 °F 84% 30.19 in 10.0 mi SSW 5.8 mph - 0.00 in   Overcast
10:54 PM 75.0 °F - 69.1 °F 82% 30.20 in 10.0 mi SSW 9.2 mph - N/A   Overcast
11:54 PM 73.9 °F - 69.1 °F 85% 30.20 in 10.0 mi South 5.8 mph - N/A   Mostly Cloudy